sat.trackr.live / text

‹ back to catalog

STARLINK-35033

NORAD 65468 · 2025-195L

PAYLOAD ACTIVE UNKNOWN

§ Identity

Operator
Country
US
Launch date
2025-09-03
Launch site
AFETR
Launch vehicle
Mass (kg)
RCS (m²)

Purposes: comms

External: N2YO · Heavens-Above · Gunter

§ Orbital elements

Epoch: 2026-05-25T01:17:02.870016Z

Period
94.01 min
Inclination
53.1594°
Eccentricity
0.0001127
Mean motion
15.31717845 rev/d
Perigee alt
469.9 km
Apogee alt
471.5 km
Semi-major
6,848.8 km
B*
4.0441e-4
RAAN
262.8870°
Arg perigee
81.5357°
Mean anomaly
278.5772°
Rev number
4,169

§ Raw data

STARLINK-350331 65468U 25195L   26145.05350544  .00012212  00000+0  40441-3 0  99982 65468  53.1594 262.8870 0001127  81.5357 278.5772 15.31717845 41691

JSON: /api/v1/satellites/65468 · /tle

For live sub-satellite position, see the globe view (requires WebGL).

§ Visibility from observer

Set your observer location to see the next 7 days of passes ≥ 10°. The values pass through the URL so the page stays shareable.

No JS? Fill the form by hand. The geolocation button needs JavaScript.